Date,TemperatureHighF,TemperatureAvgF,TemperatureLowF,DewpointHighF,DewpointAvgF,DewpointLowF,HumidityHigh,HumidityAvg,HumidityLow,PressureMaxIn,PressureMinIn,WindSpeedMaxMPH,WindSpeedAvgMPH,GustSpeedMaxMPH,PrecipitationSumIn
2013-2-1,30.2,23.6,17.8,14.7,5.7,-1.7,66,46,32,30.19,29.68,27,6,27,0.01
2013-2-2,29.1,20.4,9.5,9.4,2.9,-3.8,65,47,29,30.24,30.03,17,4,17,0.00
2013-2-3,32.4,23.4,14.9,13.7,8.9,4.1,72,55,35,30.08,29.81,8,1,8,0.00
2013-2-4,26.1,22.1,13.6,13.6,7.6,1.6,69,54,36,29.99,29.79,18,5,18,0.00
2013-2-5,30.2,23.1,16.5,16.6,5.6,0.7,65,48,32,30.06,29.92,8,2,8,0.00
2013-2-6,35.1,26.9,16.2,22.2,10.1,-8.0,74,52,21,30.41,29.92,24,5,24,0.01
2013-2-7,27.1,19.6,11.1,2.4,-2.5,-6.0,60,38,24,30.57,30.40,8,2,8,0.00
2013-2-8,29.8,23.4,19.0,20.9,12.5,-0.7,79,63,41,30.40,29.85,13,3,13,0.00
2013-2-9,28.8,19.4,3.6,18.0,4.9,-11.4,80,56,22,30.40,29.88,18,6,18,0.00
2013-2-10,30.4,13.0,-3.8,4.0,-5.4,-14.7,63,45,21,30.54,30.29,6,1,6,0.00
2013-2-11,41.5,33.0,14.5,34.6,24.3,0.6,87,71,46,30.29,29.66,19,7,19,0.01
2013-2-12,39.0,36.0,33.6,28.2,24.1,19.4,78,62,52,29.97,29.71,21,5,21,0.12
2013-2-13,44.8,34.3,29.8,23.9,19.3,13.7,70,55,32,29.92,29.75,11,2,11,0.00
2013-2-14,42.6,33.1,23.2,22.5,18.4,13.2,66,55,43,29.99,29.75,11,2,11,0.00
2013-2-15,50.9,39.5,31.5,27.9,22.6,19.5,76,51,35,30.04,29.90,14,5,14,0.00
2013-2-16,35.4,29.8,23.9,24.6,11.9,1.0,77,48,33,30.04,29.86,13,4,13,0.00
2013-2-17,25.2,19.6,12.7,4.7,-4.3,-10.2,47,34,23,29.99,29.69,29,10,29,1.31
2013-2-18,28.2,17.9,8.2,5.5,-7.4,-14.5,54,32,21,30.21,29.99,27,8,27,0.01
2013-2-19,43.0,30.6,17.2,30.5,17.3,1.6,83,59,40,30.19,29.65,25,6,25,0.08
2013-2-20,32.7,28.4,24.6,21.5,8.9,0.3,64,44,26,29.93,29.69,26,6,26,0.07
2013-2-21,30.4,22.2,18.3,8.7,5.5,1.0,59,48,30,30.24,29.62,25,9,25,0.48
2013-2-22,38.1,29.1,17.1,20.3,14.1,6.1,67,53,42,30.29,30.09,16,3,16,0.00
2013-2-23,36.7,34.8,32.5,31.2,26.7,20.1,83,72,56,30.09,29.74,18,6,18,0.00
2013-2-24,40.5,34.3,31.8,34.0,26.5,19.4,86,73,51,29.85,29.64,17,4,17,0.05
2013-2-25,43.7,33.9,22.1,35.2,22.7,15.6,83,64,44,30.11,29.85,11,1,11,0.00
2013-2-26,48.4,36.7,24.6,29.3,22.9,17.4,79,58,39,30.17,29.90,13,2,13,0.13
2013-2-27,41.7,36.1,32.2,36.4,30.3,18.4,86,80,46,29.91,29.42,11,1,11,0.47
2013-2-28,46.4,38.2,33.8,37.3,31.2,27.8,88,76,57,29.48,29.42,9,1,9,0.08